Eastsound, WA
on Friday, November 9, 2012

Friday
Previous Day Next Day
Daily Summary
 ActualAverage (KBLI)Record (KBLI)
Temperature
Mean Temperature °F 45°F  
Max Temperature 44°F 51°F 64°F (1976)
Min Temperature 32°F 38°F 26°F (1979)
Degree Days
Heating Degree Days 27 20  
Month to date heating degree days 175  
Cooling Degree Days 0 0  
Month to date cooling degree days 0  
Year to date cooling degree days 42  
Moisture
Dew Point 28°F   
Average Humidity 60    
Maximum Humidity 93    
Minimum Humidity 46    
Precipitation
Precipitation 0.00 in 0.20 in 2.87 in (1990)
Month to date precipitation 1.73  
Year to date precipitation 27.54  
Wind
Wind Speed 3 mph   
Max Wind Speed 9 mph   
Max Gust Speed mph   
Visibility 10 miles   
Events     

Key: T is trace of precipitation, MM is missing value
Source: NWS Daily Summary
Time(PST)TemperatureDew PointHumidity Pressure Visibility Wind DirectionWind SpeedGust SpeedPrecipitationEvents Conditions
12:15 AM 39.2°F 32.0°F 75% 29.85 in 10.0 miles Calm Calm - N/A   Clear
12:35 AM 41.0°F 26.6°F 57% 29.85 in 10.0 miles North 5.8 mph - N/A   Clear
12:55 AM 42.8°F 28.4°F 57% 29.86 in 10.0 miles NNE 4.6 mph - N/A   Clear
1:15 AM 42.8°F 30.2°F 61% 29.85 in 10.0 miles North 3.5 mph - N/A   Clear
1:35 AM 42.8°F 30.2°F 61% 29.85 in 10.0 miles NNE 3.5 mph - N/A   Clear
1:55 AM 41.0°F 32.0°F 70% 29.86 in 10.0 miles Calm Calm - N/A   Clear
2:15 AM 44.6°F 28.4°F 53% 29.86 in 10.0 miles Calm Calm - N/A   Clear
2:35 AM 37.4°F 32.0°F 81% 29.86 in 10.0 miles Calm Calm - N/A   Clear
2:55 AM 37.4°F 32.0°F 81% 29.86 in 10.0 miles Calm Calm - N/A   Clear
3:15 AM 41.0°F 32.0°F 70% 29.86 in 10.0 miles Calm Calm - N/A   Clear
3:35 AM 39.2°F 30.2°F 70% 29.86 in 10.0 miles Calm Calm - N/A   Clear
3:55 AM 35.6°F 32.0°F 87% 29.86 in 10.0 miles Calm Calm - N/A   Clear
4:15 AM 35.6°F 32.0°F 87% 29.86 in 10.0 miles Calm Calm - N/A   Clear
4:35 AM 35.6°F 32.0°F 87% 29.86 in 10.0 miles Calm Calm - N/A   Clear
4:55 AM 32.0°F 30.2°F 93% 29.87 in 10.0 miles Calm Calm - N/A   Clear
5:15 AM 33.8°F 30.2°F 87% 29.87 in 10.0 miles Calm Calm - N/A   Clear
5:35 AM 33.8°F 32.0°F 93% 29.87 in 10.0 miles Calm Calm - N/A   Clear
5:55 AM 33.8°F 32.0°F 93% 29.87 in 10.0 miles NE 3.5 mph - N/A   Clear
6:15 AM 41.0°F 26.6°F 57% 29.87 in 10.0 miles Calm Calm - N/A   Clear
6:35 AM 39.2°F 26.6°F 61% 29.88 in 10.0 miles Calm Calm - N/A   Clear
6:55 AM 39.2°F 26.6°F 61% 29.88 in 10.0 miles Calm Calm - N/A   Clear
7:15 AM 41.0°F 24.8°F 53% 29.88 in 10.0 miles Calm Calm - N/A   Clear
7:35 AM 41.0°F 26.6°F 57% 29.89 in 10.0 miles Calm Calm - N/A   Clear
7:55 AM 41.0°F 24.8°F 53% 29.89 in 10.0 miles Calm Calm - N/A   Clear
8:15 AM 41.0°F 26.6°F 57% 29.89 in 10.0 miles Calm Calm - N/A   Clear
8:35 AM 41.0°F 26.6°F 57% 29.90 in 10.0 miles NE 4.6 mph - N/A   Clear
8:55 AM 41.0°F 26.6°F 57% 29.90 in 10.0 miles NNE 3.5 mph - N/A   Clear
9:15 AM 42.8°F 26.6°F 53% 29.90 in 10.0 miles Calm Calm - N/A   Clear
9:35 AM 42.8°F 26.6°F 53% 29.90 in 10.0 miles Calm Calm - N/A   Clear
9:55 AM 42.8°F 26.6°F 53% 29.90 in 10.0 miles Calm Calm - N/A   Clear
10:15 AM 42.8°F 26.6°F 53% 29.91 in 10.0 miles North 5.8 mph - N/A   Clear
10:35 AM 42.8°F 26.6°F 53% 29.91 in 10.0 miles North 5.8 mph - N/A   Clear
10:55 AM 42.8°F 26.6°F 53% 29.91 in 10.0 miles North 4.6 mph - N/A   Clear
11:15 AM 44.6°F 24.8°F 46% 29.91 in 10.0 miles North 3.5 mph - N/A   Clear
11:35 AM 44.6°F 26.6°F 49% 29.90 in 10.0 miles North 5.8 mph - N/A   Clear
11:55 AM 44.6°F 26.6°F 49% 29.90 in 10.0 miles North 3.5 mph - N/A   Clear
12:15 PM 44.6°F 26.6°F 49% 29.90 in 10.0 miles North 8.1 mph - N/A   Clear
12:35 PM 44.6°F 28.4°F 53% 29.90 in 10.0 miles North 8.1 mph - N/A   Clear
12:55 PM 44.6°F 28.4°F 53% 29.89 in 10.0 miles North 6.9 mph - N/A   Clear
1:15 PM 44.6°F 28.4°F 53% 29.89 in 10.0 miles North 6.9 mph - N/A   Clear
1:35 PM 44.6°F 28.4°F 53% 29.89 in 10.0 miles North 5.8 mph - N/A   Clear
1:55 PM 44.6°F 28.4°F 53% 29.89 in 10.0 miles North 8.1 mph - N/A   Clear
2:15 PM 44.6°F 28.4°F 53% 29.89 in 10.0 miles North 4.6 mph - N/A   Clear
2:35 PM 44.6°F 26.6°F 49% 29.89 in 10.0 miles North 6.9 mph - N/A   Clear
2:55 PM 44.6°F 28.4°F 53% 29.89 in 10.0 miles NNW 6.9 mph - N/A   Clear
3:15 PM 44.6°F 28.4°F 53% 29.89 in 10.0 miles North 8.1 mph - N/A   Clear
3:35 PM 44.6°F 28.4°F 53% 29.89 in 10.0 miles Calm Calm - N/A   Clear
3:55 PM 44.6°F 28.4°F 53% 29.89 in 10.0 miles North 5.8 mph - N/A   Clear
4:15 PM 42.8°F 28.4°F 57% 29.90 in 10.0 miles North 3.5 mph - N/A   Clear
4:35 PM 42.8°F 28.4°F 57% 29.90 in 10.0 miles North 4.6 mph - N/A   Clear
4:55 PM 42.8°F 28.4°F 57% 29.90 in 10.0 miles North 4.6 mph - N/A   Clear
5:15 PM 42.8°F 24.8°F 49% 29.91 in 10.0 miles North 3.5 mph - N/A   Partly Cloudy
5:35 PM 42.8°F 24.8°F 49% 29.91 in 10.0 miles NNE 9.2 mph - N/A   Clear
5:55 PM 42.8°F 23.0°F 46% 29.92 in 10.0 miles NNE 6.9 mph - N/A   Clear
6:15 PM 41.0°F 23.0°F 49% 29.92 in 10.0 miles NNE 6.9 mph - N/A   Clear
6:35 PM 41.0°F 23.0°F 49% 29.92 in 10.0 miles North 5.8 mph - N/A   Clear
6:55 PM 41.0°F 23.0°F 49% 29.93 in 10.0 miles North 5.8 mph - N/A   Clear
7:15 PM 41.0°F 23.0°F 49% 29.93 in 10.0 miles Calm Calm - N/A   Clear
7:35 PM 41.0°F 23.0°F 49% 29.93 in 10.0 miles North 3.5 mph - N/A   Clear
Moon Phase
Nov. 09 Nov. 13 Nov. 20 Nov. 28 Dec. 06
Sunrise:07:11 AM (PST) Moon Rise:01:54 AM (PST)11/9
Sunset:04:38 PM (PST) Moon Set:02:14 PM (PST)11/9

Copyright © 2014 The Weather Underground, Inc.